2023/01/29 00:00:00,103.4,-2.4
2023/01/29 00:10:00,103.6,-2.6
2023/01/29 00:20:00,103.3,-2.5
2023/01/29 00:30:00,103.1,-2.4
2023/01/29 00:40:00,103.1,-2.5
2023/01/29 00:50:00,103.1,-2.5
2023/01/29 01:00:00,103.0,-2.5
2023/01/29 01:10:00,102.9,-2.4
2023/01/29 01:20:00,103.3,-2.5
2023/01/29 01:30:00,103.5,-2.4
2023/01/29 01:40:00,103.6,-2.6
2023/01/29 01:50:00,103.6,-2.5
2023/01/29 02:00:00,103.6,-2.5
2023/01/29 02:10:00,103.8,-2.6
2023/01/29 02:20:00,103.6,-2.5
2023/01/29 02:30:00,103.4,-2.6
2023/01/29 02:40:00,103.5,-2.5
2023/01/29 02:50:00,103.5,-2.3
2023/01/29 03:00:00,103.5,-2.5
2023/01/29 03:10:00,103.3,-2.5
2023/01/29 03:20:00,103.1,-2.5
2023/01/29 03:30:00,103.0,-2.5
2023/01/29 03:40:00,102.9,-2.2
2023/01/29 03:50:00,103.1,-2.5
2023/01/29 04:00:00,103.1,-2.5
2023/01/29 04:10:00,103.1,-2.5
2023/01/29 04:20:00,103.0,-2.5
2023/01/29 04:30:00,103.5,-2.5
2023/01/29 04:40:00,103.3,-2.4
2023/01/29 04:50:00,103.1,-2.6
2023/01/29 05:00:00,103.6,-2.5
2023/01/29 05:10:00,103.6,-2.5
2023/01/29 05:20:00,103.3,-2.8
2023/01/29 05:30:00,102.9,-2.9
2023/01/29 05:40:00,102.6,-2.9
2023/01/29 05:50:00,102.4,-3.1
2023/01/29 06:00:00,102.2,-3.0
2023/01/29 06:10:00,102.0,-2.8
2023/01/29 06:20:00,101.8,-2.9
2023/01/29 06:30:00,101.5,-2.7
2023/01/29 06:40:00,101.3,-3.0
2023/01/29 06:50:00,101.1,-3.0
2023/01/29 07:00:00,101.1,-2.8
2023/01/29 07:10:00,100.9,-2.7
2023/01/29 07:20:00,100.8,-2.6
2023/01/29 07:30:00,100.5,-2.5
2023/01/29 07:40:00,100.3,-2.4
2023/01/29 07:50:00,99.9,-2.2
2023/01/29 08:00:00,99.7,-1.7
2023/01/29 08:10:00,99.6,-1.6
2023/01/29 08:20:00,99.4,-0.4
2023/01/29 08:30:00,99.5,-0.4
2023/01/29 08:40:00,99.6,-0.2
2023/01/29 08:50:00,99.4,-0.2
2023/01/29 09:00:00,99.4, 0.2
2023/01/29 09:10:00,99.3, 0.7
2023/01/29 09:20:00,99.2, 0.9
2023/01/29 09:30:00,99.0, 1.6
2023/01/29 09:40:00,99.0, 1.5
2023/01/29 09:50:00,99.0, 2.2
2023/01/29 10:00:00,99.2, 1.4
2023/01/29 10:10:00,99.2, 1.8
2023/01/29 10:20:00,99.0, 1.7
2023/01/29 10:30:00,98.5, 2.6
2023/01/29 10:40:00,98.3, 3.4
2023/01/29 10:50:00,98.1, 3.4
2023/01/29 11:00:00,98.0, 2.5
2023/01/29 11:10:00,98.1, 3.2
2023/01/29 11:20:00,98.0, 3.5
2023/01/29 11:30:00,97.9, 2.9
2023/01/29 11:40:00,97.7, 3.2
2023/01/29 11:50:00,97.3, 3.9
2023/01/29 12:00:00,97.3, 3.8
2023/01/29 12:10:00,97.3, 3.8
2023/01/29 12:20:00,97.3, 3.1
2023/01/29 12:30:00,97.3, 3.2
2023/01/29 12:40:00,97.0, 3.7
2023/01/29 12:50:00,96.7, 7.5
2023/01/29 13:00:00,96.2, 8.8
2023/01/29 13:10:00,95.8,10.8
2023/01/29 13:20:00,95.1, 8.2
2023/01/29 13:30:00,93.6, 5.3
2023/01/29 13:40:00,93.1, 6.5
2023/01/29 13:50:00,92.7, 6.8
2023/01/29 14:00:00,92.2, 6.5
2023/01/29 14:10:00,91.9, 5.2
2023/01/29 14:20:00,91.5, 4.1
2023/01/29 14:30:00,91.3, 5.3
2023/01/29 14:40:00,91.1, 8.2
2023/01/29 14:50:00,90.9, 6.6
2023/01/29 15:00:00,90.8, 5.3
2023/01/29 15:10:00,90.4, 4.5
2023/01/29 15:20:00,90.3, 3.9
2023/01/29 15:30:00,90.1, 4.6
2023/01/29 15:40:00,89.9, 3.4
2023/01/29 15:50:00,89.8, 6.0
2023/01/29 16:00:00,89.7, 8.7
2023/01/29 16:10:00,89.5, 5.9
2023/01/29 16:20:00,89.3, 5.4
2023/01/29 16:30:00,89.4, 3.2
2023/01/29 16:40:00,89.2, 2.2
2023/01/29 16:50:00,88.9, 1.9
2023/01/29 17:00:00,88.8, 1.7
2023/01/29 17:10:00,88.8, 1.3
2023/01/29 17:20:00,88.8, 0.7
2023/01/29 17:30:00,88.7, 0.3
2023/01/29 17:40:00,88.5, 0.1
2023/01/29 17:50:00,88.4,-0.1
2023/01/29 18:00:00,88.5,-0.5
2023/01/29 18:10:00,88.5,-0.6
2023/01/29 18:20:00,88.4,-0.8
2023/01/29 18:30:00,88.3,-1.1
2023/01/29 18:40:00,88.3,-1.1
2023/01/29 18:50:00,88.3,-1.4
2023/01/29 19:00:00,88.1,-1.4
2023/01/29 19:10:00,88.0,-1.6
2023/01/29 19:20:00,87.9,-1.8
2023/01/29 19:30:00,87.8,-1.9
2023/01/29 19:40:00,87.8,-2.3
2023/01/29 19:50:00,87.7,-1.8
2023/01/29 20:00:00,87.6,-1.9
2023/01/29 20:10:00,87.5,-1.8
2023/01/29 20:20:00,87.4,-1.7
2023/01/29 20:30:00,87.4,-1.7
2023/01/29 20:40:00,87.3,-1.9
2023/01/29 20:50:00,87.3,-1.9
2023/01/29 21:00:00,87.2,-1.7
2023/01/29 21:10:00,87.2,-2.0
2023/01/29 21:20:00,87.1,-1.7
2023/01/29 21:30:00,87.0,-1.7
2023/01/29 21:40:00,86.9,-1.8
2023/01/29 21:50:00,86.9,-1.8
2023/01/29 22:00:00,86.9,-1.7
2023/01/29 22:10:00,86.9,-1.8
2023/01/29 22:20:00,86.9,-1.4
2023/01/29 22:30:00,86.9,-1.8
2023/01/29 22:40:00,86.8,-1.6
2023/01/29 22:50:00,86.7,-1.3
2023/01/29 23:00:00,86.6,-1.3
2023/01/29 23:10:00,86.6,-1.3
2023/01/29 23:20:00,86.5,-1.2
2023/01/29 23:30:00,86.4,-1.3
2023/01/29 23:40:00,86.3,-1.3
2023/01/29 23:50:00,86.2,-1.4
